Tracking 30922 objects as of 2-Jul-2025
HD Live streaming from Space Station
objects crossing your sky now

OPS 0203 (DMSP 5A F2)

Track OPS 0203 (DMSP 5A F2) now!
10-day predictions
OPS 0203 (DMSP 5A F2) is classified as:


NORAD ID: 4512
Int'l Code: 1970-070A
Perigee: 732.5 km
Apogee: 823.8 km
Inclination: 98.8 °
Period: 100.3 minutes
Semi major axis: 7149 km
RCS: 0.9702 m2 (medium)
Launch date: September 3, 1970
Source: United States (US)
Launch site: AIR FORCE WESTERN TEST RANGE (AFWTR)
Your satellite tracking list
Your tracking list is empty




NASA's NSSDC Master Catalog

Two Line Element Set (TLE):
1  4512U 70070A   25182.72976174  .00000239  00000-0  95422-4 0  9997
2  4512  98.8426 116.3358 0063890  39.2657 321.3136 14.36223772861748
Source of the keplerian elements: AFSPC